Starlink 31331

operational
NORAD ID: 58946 Int'l Des: 2024-027 Owner: SPXS Country: US Constellation: starlink
LEOCIRCULAR

Über Starlink 31331

Beschreibung wird geladen...

Live-Position

3D-Globus wird geladen...

Nächste Überflüge

Höhenverlauf

Altitude vs Time

uPlot chart will show altitude changes over time

Zweizeiliger Elementsatz

1 58946U 24027R 25307.67029350 .00003341 00000-0 12484-3 0 9999
2 58946 53.1605 175.0051 0001083 77.6134 282.4988 15.30212959 98031
Epoch: 3. Nov. 2025 • Age: 14 hours

Aktueller Status

Höhe 476.4 km
Geschwindigkeit 7.63 km/s
Subsatellitenpunkt 30.72°N, 59.26°E
Startdatum 10. Feb. 2024
Alter 1.7 years
Typ internet

Technische Details

Klassifizierung Payload
Masse 730.00 kg
Trockenmasse 700.00 kg
Gesamtmasse 730.00 kg
Länge 0.30 m
Durchmesser 4.10 m
Spannweite 29.00 m
Form Box + pan
Hersteller SPXS
Bus-Typ Starlink V2M
Phasenstatus In Orbit
Besitzer/Staat SPXS/US

Große Konstellationen

Loading constellations...